UAL155 PKWA-PKMJ

Flight info

Callsign UAL155
Flight time 0h 43m
Altitude 31000
Route CURCH WOZTI
Aircraft B38M/M-SDE1FGHILORVWXY/HB1

Departure

Time 2026-04-21 16:56
Airport Bucholz Army Air Field (PKWA)

Arrival

Time 2026-04-21 17:39
Airport Marshall Islands International Airport (PKMJ)
Time Latitude Longitude Altitude Speed Heading
2026-04-21 16:39 8.72592 167.74056 -38 ft 0 kts 75°
2026-04-21 16:53 8.72594 167.74064 -45 ft 4 kts 75°
2026-04-21 16:54 8.72594 167.74122 -39 ft 13 kts 121°
2026-04-21 16:54 8.72500 167.74124 -34 ft 17 kts 199°
2026-04-21 16:54 8.72427 167.74032 -43 ft 19 kts 253°
2026-04-21 16:54 8.72374 167.73966 -42 ft 12 kts 173°
2026-04-21 16:55 8.72282 167.73989 -44 ft 15 kts 185°
2026-04-21 16:55 8.72251 167.73948 -43 ft 0 kts 252°
2026-04-21 16:55 8.72227 167.73868 -43 ft 45 kts 253°
2026-04-21 16:55 8.72052 167.73300 -35 ft 121 kts 252°
2026-04-21 16:56 8.71747 167.72315 106 ft 164 kts 252°
2026-04-21 16:56 8.71384 167.71177 773 ft 172 kts 252°
2026-04-21 16:56 8.70703 167.70171 1523 ft 183 kts 216°
2026-04-21 16:56 8.69475 167.69850 2309 ft 187 kts 168°
2026-04-21 16:57 8.68364 167.70503 3151 ft 192 kts 129°
2026-04-21 16:57 8.67796 167.71787 3764 ft 214 kts 101°
2026-04-21 16:57 8.67545 167.73353 4447 ft 236 kts 98°
2026-04-21 16:57 8.67305 167.75069 5196 ft 253 kts 97°
2026-04-21 16:58 8.67051 167.76881 6057 ft 269 kts 98°
2026-04-21 16:58 8.66697 167.78787 6832 ft 282 kts 107°
2026-04-21 16:58 8.65960 167.80633 7853 ft 285 kts 114°
2026-04-21 16:58 8.65158 167.82486 8804 ft 291 kts 114°
2026-04-21 16:59 8.64341 167.84375 9812 ft 295 kts 114°
2026-04-21 16:59 8.63506 167.86310 10529 ft 309 kts 114°
2026-04-21 16:59 8.62622 167.88359 11106 ft 326 kts 114°
2026-04-21 16:59 8.61701 167.90491 11838 ft 334 kts 114°
2026-04-21 17:00 8.60769 167.92647 12800 ft 337 kts 114°
2026-04-21 17:00 8.59824 167.94833 13673 ft 341 kts 114°
2026-04-21 17:00 8.59194 167.96292 14193 ft 344 kts 114°
2026-04-21 17:00 8.57902 167.99279 15245 ft 349 kts 114°
2026-04-21 17:01 8.56924 168.01540 16031 ft 353 kts 114°
2026-04-21 17:01 8.55934 168.03829 16787 ft 357 kts 114°
2026-04-21 17:01 8.54932 168.06145 17525 ft 362 kts 114°
2026-04-21 17:01 8.53920 168.08482 18229 ft 365 kts 114°
2026-04-21 17:02 8.52897 168.10846 18848 ft 369 kts 114°
2026-04-21 17:02 8.51865 168.13230 19459 ft 372 kts 114°
2026-04-21 17:02 8.50823 168.15637 20060 ft 375 kts 114°
2026-04-21 17:02 8.49773 168.18062 20657 ft 379 kts 114°
2026-04-21 17:03 8.48725 168.20481 21223 ft 382 kts 114°
2026-04-21 17:03 8.47656 168.22949 21800 ft 385 kts 114°
2026-04-21 17:03 8.46576 168.25441 22373 ft 389 kts 114°
2026-04-21 17:03 8.45487 168.27953 22933 ft 392 kts 114°
2026-04-21 17:04 8.44396 168.30470 23470 ft 395 kts 114°
2026-04-21 17:04 8.43283 168.33036 23924 ft 398 kts 114°
2026-04-21 17:04 8.42168 168.35606 24414 ft 400 kts 114°
2026-04-21 17:04 8.41046 168.38193 24845 ft 404 kts 114°
2026-04-21 17:05 8.39914 168.40801 25288 ft 407 kts 114°
2026-04-21 17:05 8.38776 168.43424 25748 ft 409 kts 114°
2026-04-21 17:05 8.37630 168.46063 26182 ft 412 kts 113°
2026-04-21 17:05 8.36473 168.48728 26620 ft 415 kts 113°
2026-04-21 17:06 8.35309 168.51409 27050 ft 418 kts 113°
2026-04-21 17:06 8.34137 168.54108 27471 ft 421 kts 113°
2026-04-21 17:06 8.32954 168.56829 27895 ft 424 kts 113°
2026-04-21 17:06 8.31764 168.59568 28302 ft 427 kts 113°
2026-04-21 17:07 8.30971 168.61393 28573 ft 429 kts 113°
2026-04-21 17:07 8.29345 168.65094 29105 ft 433 kts 114°
2026-04-21 17:07 8.28062 168.67857 29494 ft 436 kts 114°
2026-04-21 17:07 8.26774 168.70643 29880 ft 439 kts 114°
2026-04-21 17:08 8.25481 168.73445 30208 ft 442 kts 114°
2026-04-21 17:08 8.24179 168.76266 30532 ft 444 kts 114°
2026-04-21 17:08 8.22870 168.79104 30795 ft 448 kts 114°
2026-04-21 17:09 8.18852 168.87808 30855 ft 458 kts 114°
2026-04-21 17:09 8.16173 168.93609 30858 ft 460 kts 114°
2026-04-21 17:10 8.13470 168.99460 30862 ft 460 kts 114°
2026-04-21 17:10 8.10765 169.05312 30860 ft 460 kts 114°
2026-04-21 17:11 8.08061 169.11161 30862 ft 460 kts 114°
2026-04-21 17:11 8.05356 169.17008 30866 ft 460 kts 114°
2026-04-21 17:12 8.02652 169.22851 30864 ft 460 kts 114°
2026-04-21 17:12 7.99945 169.28697 30862 ft 460 kts 114°
2026-04-21 17:13 7.97239 169.34540 30865 ft 460 kts 114°
2026-04-21 17:13 7.94530 169.40385 30865 ft 460 kts 114°
2026-04-21 17:14 7.91823 169.46223 30864 ft 459 kts 114°
2026-04-21 17:14 7.89119 169.52053 30867 ft 459 kts 114°
2026-04-21 17:15 7.86433 169.57842 30848 ft 457 kts 114°
2026-04-21 17:15 7.85101 169.60712 30347 ft 449 kts 114°
2026-04-21 17:15 7.83779 169.63559 29435 ft 447 kts 114°
2026-04-21 17:16 7.82460 169.66399 28606 ft 448 kts 114°
2026-04-21 17:16 7.81144 169.69232 28065 ft 443 kts 114°
2026-04-21 17:16 7.79845 169.72029 27553 ft 438 kts 115°
2026-04-21 17:16 7.78555 169.74805 26979 ft 435 kts 115°
2026-04-21 17:17 7.77706 169.76633 26609 ft 433 kts 115°
2026-04-21 17:17 7.76002 169.80300 25853 ft 430 kts 115°
2026-04-21 17:17 7.74738 169.83018 25296 ft 428 kts 115°
2026-04-21 17:17 7.73478 169.85726 24746 ft 426 kts 115°
2026-04-21 17:18 7.72225 169.88422 24197 ft 424 kts 115°
2026-04-21 17:18 7.70985 169.91086 23663 ft 416 kts 115°
2026-04-21 17:18 7.69770 169.93698 23126 ft 407 kts 115°
2026-04-21 17:18 7.68583 169.96250 22566 ft 398 kts 115°
2026-04-21 17:19 7.67411 169.98768 22074 ft 395 kts 115°
2026-04-21 17:19 7.66248 170.01266 21588 ft 393 kts 115°
2026-04-21 17:19 7.65482 170.02911 21272 ft 391 kts 115°
2026-04-21 17:19 7.63941 170.06219 20650 ft 388 kts 115°
2026-04-21 17:20 7.62796 170.08678 20179 ft 386 kts 115°
2026-04-21 17:20 7.61657 170.11122 19723 ft 384 kts 115°
2026-04-21 17:20 7.60907 170.12733 19428 ft 383 kts 115°
2026-04-21 17:20 7.59778 170.15156 18979 ft 381 kts 115°
2026-04-21 17:21 7.58652 170.17572 18534 ft 380 kts 115°
2026-04-21 17:21 7.57531 170.19976 18090 ft 378 kts 115°
2026-04-21 17:21 7.56414 170.22373 17597 ft 376 kts 115°
2026-04-21 17:21 7.55305 170.24751 17153 ft 373 kts 115°
2026-04-21 17:22 7.54205 170.27109 16720 ft 370 kts 115°
2026-04-21 17:22 7.53115 170.29447 16295 ft 367 kts 115°
2026-04-21 17:22 7.52032 170.31767 15875 ft 364 kts 116°
2026-04-21 17:22 7.50958 170.34069 15456 ft 362 kts 116°
2026-04-21 17:23 7.49892 170.36353 15050 ft 359 kts 115°
2026-04-21 17:23 7.48833 170.38623 14626 ft 357 kts 115°
2026-04-21 17:23 7.47781 170.40877 14218 ft 355 kts 115°
2026-04-21 17:23 7.46733 170.43120 13808 ft 352 kts 115°
2026-04-21 17:24 7.45693 170.45348 13366 ft 351 kts 115°
2026-04-21 17:24 7.44659 170.47561 12923 ft 348 kts 115°
2026-04-21 17:24 7.43632 170.49759 12516 ft 345 kts 115°
2026-04-21 17:24 7.42615 170.51937 12122 ft 342 kts 115°
2026-04-21 17:25 7.41605 170.54098 11722 ft 339 kts 115°
2026-04-21 17:25 7.40603 170.56243 11326 ft 337 kts 115°
2026-04-21 17:25 7.39609 170.58369 10938 ft 334 kts 115°
2026-04-21 17:25 7.38628 170.60467 10711 ft 327 kts 115°
2026-04-21 17:26 7.37674 170.62507 10557 ft 317 kts 115°
2026-04-21 17:26 7.36762 170.64459 10414 ft 308 kts 115°
2026-04-21 17:26 7.35863 170.66381 10261 ft 299 kts 115°
2026-04-21 17:26 7.34990 170.68248 10126 ft 290 kts 115°
2026-04-21 17:27 7.34141 170.70062 9968 ft 283 kts 115°
2026-04-21 17:27 7.33307 170.71846 9695 ft 280 kts 115°
2026-04-21 17:27 7.32476 170.73621 9351 ft 280 kts 115°
2026-04-21 17:27 7.31649 170.75389 9031 ft 279 kts 115°
2026-04-21 17:28 7.30824 170.77152 8720 ft 277 kts 115°
2026-04-21 17:28 7.30004 170.78904 8416 ft 276 kts 115°
2026-04-21 17:28 7.29189 170.80646 8114 ft 274 kts 115°
2026-04-21 17:28 7.28351 170.82365 7812 ft 273 kts 122°
2026-04-21 17:29 7.27120 170.83806 7503 ft 271 kts 135°
2026-04-21 17:29 7.25812 170.85158 7215 ft 269 kts 134°
2026-04-21 17:29 7.24515 170.86503 6961 ft 267 kts 134°
2026-04-21 17:29 7.23227 170.87838 6688 ft 265 kts 134°
2026-04-21 17:30 7.21945 170.89167 6403 ft 264 kts 134°
2026-04-21 17:30 7.20665 170.90492 6117 ft 263 kts 134°
2026-04-21 17:30 7.19391 170.91812 5811 ft 262 kts 134°
2026-04-21 17:30 7.18123 170.93126 5522 ft 261 kts 134°
2026-04-21 17:31 7.16861 170.94432 5248 ft 259 kts 134°
2026-04-21 17:31 7.15609 170.95729 4971 ft 258 kts 134°
2026-04-21 17:31 7.14362 170.97020 4698 ft 256 kts 134°
2026-04-21 17:31 7.13123 170.98302 4415 ft 255 kts 134°
2026-04-21 17:32 7.11893 170.99576 4160 ft 252 kts 134°
2026-04-21 17:32 7.10685 171.00825 4012 ft 245 kts 134°
2026-04-21 17:32 7.09519 171.02033 3921 ft 234 kts 133°
2026-04-21 17:32 7.08430 171.03160 3873 ft 216 kts 133°
2026-04-21 17:33 7.07431 171.04229 3728 ft 204 kts 132°
2026-04-21 17:33 7.06492 171.05253 3569 ft 194 kts 132°
2026-04-21 17:33 7.05596 171.06226 3429 ft 184 kts 131°
2026-04-21 17:33 7.04747 171.07147 3304 ft 175 kts 132°
2026-04-21 17:34 7.03922 171.08043 3200 ft 174 kts 131°
2026-04-21 17:34 7.03130 171.08917 3142 ft 166 kts 127°
2026-04-21 17:34 7.02724 171.09966 2951 ft 161 kts 94°
2026-04-21 17:34 7.02796 171.11059 2753 ft 156 kts 81°
2026-04-21 17:35 7.02959 171.12113 2596 ft 150 kts 81°
2026-04-21 17:35 7.03111 171.13145 2447 ft 148 kts 80°
2026-04-21 17:35 7.03308 171.14163 2314 ft 148 kts 77°
2026-04-21 17:35 7.03554 171.15195 2210 ft 152 kts 75°
2026-04-21 17:36 7.03815 171.16233 2050 ft 152 kts 75°
2026-04-21 17:36 7.04073 171.17266 1838 ft 152 kts 75°
2026-04-21 17:36 7.04352 171.18289 1622 ft 152 kts 74°
2026-04-21 17:36 7.04620 171.19316 1391 ft 150 kts 75°
2026-04-21 17:37 7.04865 171.20333 1149 ft 150 kts 77°
2026-04-21 17:37 7.05092 171.21356 890 ft 149 kts 77°
2026-04-21 17:37 7.05324 171.22372 680 ft 149 kts 77°
2026-04-21 17:37 7.05572 171.23376 519 ft 149 kts 76°
2026-04-21 17:38 7.05815 171.24394 334 ft 149 kts 75°
2026-04-21 17:38 7.06054 171.25397 169 ft 146 kts 76°
2026-04-21 17:38 7.06300 171.26377 9 ft 140 kts 75°
2026-04-21 17:38 7.06488 171.27152 5 ft 83 kts 76°
2026-04-21 17:39 7.06597 171.27606 3 ft 60 kts 76°
2026-04-21 17:39 7.06684 171.27959 3 ft 44 kts 76°
2026-04-21 17:39 7.06751 171.28077 5 ft 1 kts
2026-04-21 17:39 7.06756 171.28077 5 ft 2 kts
2026-04-21 17:40 7.06786 171.28076 8 ft 6 kts 360°
2026-04-21 17:40 7.06821 171.28100 7 ft 7 kts 60°
2026-04-21 17:40 7.06852 171.28150 7 ft 10 kts 64°
2026-04-21 17:40 7.06843 171.28189 7 ft 0 kts 128°